Rochester/St. Mary\'s Hospita, MN

10:53 AM CST on December 11, 2019 (GMT -0600)
Rochester/St. Mary\'s Hospita

Weather History for K9MN - October, 2019

Change the Weather History Date:

Wednesday, October 23, 2019

  Actual Average (WUND) Record (WUND)
Temperature  
Mean Temperature 39 °F -  
Max Temperature 46 °F - - (-1)
Min Temperature 32 °F - - (-1)
Degree Days  
Heating Degree Days 26    
Moisture  
Dew Point 31 °F    
Average Humidity 72    
Maximum Humidity 88    
Minimum Humidity 57    
Precipitation  
Precipitation 0.00 in - - ()
Sea Level Pressure  
Sea Level Pressure 29.90 in    
Wind  
Wind Speed 9 mph (West)    
Max Wind Speed 15 mph    
Max Gust Speed 30 mph    
Visibility 10 miles    
Events      
Averages and records for this station are not official NWS values.
T = Trace of Precipitation, MM = Missing Value Source: NWS Daily Summary

Daily Weather History Graph

Daily Weather History Graph

Search for Another Location

Airport or City:

Astronomy

Oct. 23, 2019 Rise Set
Actual Time 7:34 AM CDT 6:13 PM CDT
Civil Twilight 7:04 AM CDT 6:42 PM CDT
Nautical Twilight 6:31 AM CDT 7:16 PM CDT
Astronomical Twilight 5:57 AM CDT 7:49 PM CDT
Moon 1:38 AM CDT (10/23) 4:17 PM CDT (10/23)
Length of Visible Light 11h 37m
Length of Day
10h 39m
Waning Crescent, 26% of the Moon is Illuminated
Oct 23
Waning Crescent
Oct 27
New
Nov 4
First Quarter
Nov 12
Full
Nov 19
Last Quarter

Hourly Weather History & Observations

Time (CDT) Temp. Windchill Dew Point Humidity Pressure Visibility Wind Dir Wind Speed Gust Speed Precip Events Conditions
12:15 AM 41.7 °F 34.4 °F 29.3 °F 61% 29.72 in 10.0 mi West 13.8 mph 29.9 mph N/A   Overcast
12:16 AM 41.5 °F 33.8 °F 29.3 °F 62% 29.72 in 10.0 mi West 15.0 mph 29.9 mph N/A   Overcast
12:35 AM 41.2 °F 33.7 °F 29.3 °F 63% 29.73 in 10.0 mi West 13.8 mph 24.2 mph N/A   Overcast
12:55 AM 40.5 °F 33.6 °F 29.3 °F 64% 29.73 in 10.0 mi West 11.5 mph 20.7 mph N/A   Scattered Clouds
1:15 AM 39.7 °F 32.3 °F 29.3 °F 66% 29.73 in 10.0 mi WSW 12.7 mph 20.7 mph N/A   Clear
1:16 AM 39.7 °F 31.9 °F 29.3 °F 66% 29.73 in 10.0 mi WSW 13.8 mph 20.7 mph N/A   Clear
1:35 AM 38.3 °F 31.4 °F 30.0 °F 72% 29.73 in 10.0 mi WSW 10.4 mph 17.3 mph N/A   Clear
1:36 AM 38.1 °F 30.2 °F 30.0 °F 73% 29.73 in 10.0 mi WSW 12.7 mph 17.3 mph N/A   Clear
1:55 AM 37.2 °F 29.1 °F 30.2 °F 76% 29.74 in 10.0 mi WSW 12.7 mph 17.3 mph N/A   Clear
2:15 AM 36.5 °F 27.8 °F 30.2 °F 78% 29.74 in 10.0 mi WSW 13.8 mph 20.7 mph N/A   Clear
2:36 AM 36.1 °F 27.3 °F 30.2 °F 79% 29.74 in 10.0 mi WSW 13.8 mph 20.7 mph N/A   Clear
2:55 AM 36.0 °F 28.0 °F 30.2 °F 80% 29.75 in 10.0 mi WSW 11.5 mph 19.6 mph N/A   Clear
2:56 AM 36.0 °F 29.0 °F 30.2 °F 80% 29.75 in 10.0 mi WSW 9.2 mph 19.6 mph N/A   Clear
3:15 AM 35.8 °F 27.8 °F 30.2 °F 80% 29.76 in 10.0 mi WSW 11.5 mph 23.0 mph N/A   Clear
3:35 AM 35.2 °F 27.6 °F 30.2 °F 82% 29.77 in 10.0 mi WSW 10.4 mph 18.4 mph N/A   Clear
3:55 AM 35.2 °F 28.1 °F 30.2 °F 82% 29.77 in 10.0 mi West 9.2 mph - N/A   Clear
3:56 AM 35.2 °F 27.6 °F 30.2 °F 82% 29.77 in 10.0 mi West 10.4 mph - N/A   Clear
4:15 AM 35.1 °F 26.9 °F 30.2 °F 82% 29.77 in 10.0 mi WSW 11.5 mph - N/A   Clear
4:16 AM 35.1 °F 27.4 °F 30.2 °F 82% 29.77 in 10.0 mi WSW 10.4 mph - N/A   Clear
4:35 AM 34.7 °F 28.1 °F 30.0 °F 83% 29.78 in 10.0 mi WSW 8.1 mph 17.3 mph N/A   Clear
4:55 AM 34.7 °F 26.9 °F 30.0 °F 83% 29.78 in 10.0 mi WSW 10.4 mph 16.1 mph N/A   Clear
5:15 AM 34.0 °F 26.6 °F 29.8 °F 85% 29.80 in 10.0 mi WSW 9.2 mph - N/A   Clear
5:35 AM 33.8 °F 26.4 °F 30.0 °F 86% 29.80 in 10.0 mi WSW 9.2 mph - N/A   Clear
6:15 AM 33.8 °F 28.6 °F 29.8 °F 85% 29.81 in 10.0 mi WSW 5.8 mph 16.1 mph N/A   Clear
6:35 AM 33.8 °F 27.7 °F 29.8 °F 85% 29.81 in 10.0 mi West 6.9 mph - N/A   Clear
6:55 AM 33.1 °F 27.7 °F 29.8 °F 88% 29.82 in 10.0 mi West 5.8 mph - N/A   Clear
6:56 AM 33.1 °F 26.9 °F 29.8 °F 88% 29.82 in 10.0 mi West 6.9 mph - N/A   Clear
7:15 AM 32.9 °F 28.5 °F 29.8 °F 88% 29.83 in 10.0 mi West 4.6 mph - N/A   Clear
7:16 AM 32.9 °F 26.7 °F 29.8 °F 88% 29.83 in 10.0 mi WSW 6.9 mph - N/A   Clear
7:35 AM 32.9 °F 26.7 °F 29.3 °F 87% 29.83 in 10.0 mi WSW 6.9 mph - N/A   Clear
7:55 AM 33.3 °F 27.9 °F 29.8 °F 87% 29.84 in 10.0 mi West 5.8 mph - N/A   Clear
8:15 AM 33.8 °F 28.6 °F 29.7 °F 85% 29.85 in 10.0 mi West 5.8 mph - N/A   Clear
8:16 AM 33.8 °F 29.6 °F 29.7 °F 85% 29.85 in 10.0 mi West 4.6 mph - N/A   Clear
8:35 AM 34.5 °F 30.4 °F 30.0 °F 84% 29.85 in 10.0 mi West 4.6 mph - N/A   Clear
8:36 AM 34.5 °F 30.4 °F 30.0 °F 84% 29.85 in 10.0 mi West 4.6 mph - N/A   Clear
8:55 AM 35.2 °F 29.5 °F 30.2 °F 82% 29.87 in 10.0 mi WSW 6.9 mph - N/A   Clear
8:56 AM 35.2 °F 28.8 °F 30.2 °F 82% 29.87 in 10.0 mi West 8.1 mph - N/A   Clear
9:15 AM 36.1 °F 32.3 °F 30.0 °F 78% 29.87 in 10.0 mi West 4.6 mph - N/A   Clear
9:35 AM 37.4 °F 32.1 °F 30.7 °F 77% 29.88 in 10.0 mi WSW 6.9 mph - N/A   Clear
9:55 AM 39.0 °F 36.8 °F 30.9 °F 73% 29.87 in 10.0 mi West 3.5 mph - N/A   Clear
9:56 AM 39.2 °F 37.0 °F 30.9 °F 72% 29.87 in 10.0 mi West 3.5 mph - N/A   Clear
10:15 AM 39.4 °F 34.5 °F 30.2 °F 70% 29.87 in 10.0 mi WSW 6.9 mph - N/A   Clear
10:16 AM 39.6 °F 35.4 °F 30.4 °F 70% 29.87 in 10.0 mi West 5.8 mph - N/A   Clear
10:35 AM 40.3 °F 36.3 °F 30.7 °F 69% 29.87 in 10.0 mi WNW 5.8 mph - N/A   Clear
10:55 AM 41.9 °F 36.9 °F 30.6 °F 64% 29.87 in 10.0 mi WNW 8.1 mph - N/A   Clear
11:15 AM 41.2 °F 38.2 °F 30.2 °F 65% 29.88 in 10.0 mi NW 4.6 mph - N/A   Mostly Cloudy
11:16 AM 41.2 °F 36.6 °F 30.2 °F 65% 29.88 in 10.0 mi NW 6.9 mph - N/A   Mostly Cloudy
11:35 AM 42.1 °F 37.1 °F 30.4 °F 63% 29.88 in 10.0 mi WNW 8.1 mph - N/A   Overcast
11:36 AM 42.1 °F 37.1 °F 30.2 °F 63% 29.88 in 10.0 mi WNW 8.1 mph - N/A   Overcast
11:55 AM 42.8 °F 40.1 °F 30.7 °F 62% 29.88 in 10.0 mi WNW 4.6 mph - N/A   Overcast
12:15 PM 43.3 °F 39.2 °F 31.5 °F 63% 29.88 in 10.0 mi West 6.9 mph - N/A   Overcast
12:35 PM 44.1 °F 40.8 °F 31.6 °F 62% 29.88 in 10.0 mi West 5.8 mph - N/A   Overcast
12:55 PM 45.9 °F 42.9 °F 31.8 °F 58% 29.88 in 10.0 mi West 5.8 mph - N/A   Mostly Cloudy
12:56 PM 45.9 °F 42.3 °F 31.8 °F 58% 29.88 in 10.0 mi West 6.9 mph - N/A   Mostly Cloudy
1:15 PM 46.0 °F - 31.8 °F 58% 29.88 in 10.0 mi Calm Calm - N/A   Mostly Cloudy
1:16 PM 46.0 °F 44.8 °F 31.8 °F 58% 29.88 in 10.0 mi West 3.5 mph - N/A   Mostly Cloudy
1:35 PM 45.5 °F 42.5 °F 31.8 °F 59% 29.88 in 10.0 mi West 5.8 mph - N/A   Overcast
1:55 PM 46.2 °F 44.1 °F 32.0 °F 58% 29.88 in 10.0 mi WSW 4.6 mph - N/A   Overcast
2:15 PM 45.9 °F 44.6 °F 32.0 °F 58% 29.88 in 10.0 mi West 3.5 mph - N/A   Overcast
2:16 PM 45.9 °F 44.6 °F 32.0 °F 58% 29.88 in 10.0 mi WSW 3.5 mph - N/A   Overcast
2:35 PM 46.4 °F 44.3 °F 32.2 °F 58% 29.88 in 10.0 mi West 4.6 mph - N/A   Overcast
2:36 PM 46.4 °F 44.3 °F 32.2 °F 58% 29.88 in 10.0 mi WSW 4.6 mph - N/A   Overcast
2:55 PM 46.4 °F 43.5 °F 32.0 °F 57% 29.89 in 10.0 mi West 5.8 mph - N/A   Overcast
3:15 PM 46.0 °F 41.9 °F 32.0 °F 58% 29.91 in 10.0 mi West 8.1 mph - N/A   Overcast
3:35 PM 45.9 °F 41.7 °F 32.2 °F 59% 29.92 in 10.0 mi West 8.1 mph - N/A   Overcast
3:55 PM 45.3 °F 41.1 °F 32.2 °F 60% 29.92 in 10.0 mi West 8.1 mph - N/A   Overcast
3:56 PM 45.3 °F 41.6 °F 32.0 °F 60% 29.92 in 10.0 mi West 6.9 mph - N/A   Overcast
4:15 PM 45.0 °F 41.2 °F 32.2 °F 61% 29.93 in 10.0 mi West 6.9 mph - N/A   Overcast
4:35 PM 44.8 °F 42.4 °F 32.4 °F 62% 29.93 in 10.0 mi West 4.6 mph - N/A   Overcast
4:36 PM 44.8 °F 41.6 °F 32.4 °F 62% 29.93 in 10.0 mi West 5.8 mph - N/A   Overcast
4:55 PM 44.6 °F 42.2 °F 32.7 °F 63% 29.93 in 10.0 mi West 4.6 mph - N/A   Overcast
4:56 PM 44.6 °F 43.1 °F 32.9 °F 64% 29.93 in 10.0 mi West 3.5 mph - N/A   Overcast
5:15 PM 43.7 °F 39.1 °F 32.2 °F 64% 29.94 in 10.0 mi WSW 8.1 mph - N/A   Overcast
5:35 PM 43.3 °F 39.9 °F 32.7 °F 66% 29.96 in 10.0 mi West 5.8 mph - N/A   Overcast
5:55 PM 43.2 °F 40.5 °F 33.1 °F 68% 29.97 in 10.0 mi West 4.6 mph - N/A   Overcast
5:56 PM 43.2 °F 39.0 °F 33.1 °F 68% 29.97 in 10.0 mi West 6.9 mph - N/A   Overcast
6:15 PM 42.4 °F 38.8 °F 32.9 °F 69% 29.98 in 10.0 mi WNW 5.8 mph - N/A   Overcast
6:16 PM 42.4 °F 38.8 °F 32.9 °F 69% 29.98 in 10.0 mi NW 5.8 mph - N/A   Overcast
6:35 PM 42.4 °F 37.5 °F 33.1 °F 69% 29.99 in 10.0 mi West 8.1 mph - N/A   Overcast
6:55 PM 42.3 °F 38.6 °F 33.1 °F 70% 30.01 in 10.0 mi West 5.8 mph - N/A   Overcast
7:15 PM 42.1 °F 37.7 °F 33.3 °F 71% 30.02 in 10.0 mi West 6.9 mph - N/A   Overcast
7:16 PM 42.1 °F 37.1 °F 33.3 °F 71% 30.02 in 10.0 mi West 8.1 mph - N/A   Overcast
7:35 PM 41.9 °F 38.2 °F 33.6 °F 72% 30.02 in 10.0 mi West 5.8 mph - N/A   Overcast
7:36 PM 41.9 °F 37.5 °F 33.6 °F 72% 30.02 in 10.0 mi West 6.9 mph - N/A   Overcast
7:55 PM 41.5 °F 35.9 °F 33.8 °F 74% 30.04 in 10.0 mi WNW 9.2 mph - N/A   Overcast
8:15 PM 41.0 °F 36.4 °F 32.2 °F 71% 30.04 in 10.0 mi NW 6.9 mph - N/A   Overcast
8:35 PM 40.6 °F 36.0 °F 32.0 °F 71% 30.05 in 10.0 mi WNW 6.9 mph - N/A   Overcast
8:36 PM 40.5 °F 35.8 °F 32.0 °F 72% 30.05 in 10.0 mi WNW 6.9 mph - N/A   Overcast
8:55 PM 40.3 °F 35.5 °F 32.0 °F 72% 30.05 in 10.0 mi NW 6.9 mph - N/A   Overcast
8:56 PM 40.3 °F 35.5 °F 32.0 °F 72% 30.05 in 10.0 mi NW 6.9 mph - N/A   Overcast
9:15 PM 40.3 °F 37.1 °F 32.0 °F 72% 30.06 in 10.0 mi WNW 4.6 mph - N/A   Overcast
9:16 PM 40.1 °F 36.9 °F 32.0 °F 73% 30.06 in 10.0 mi NW 4.6 mph - N/A   Overcast
9:35 PM 40.1 °F 36.1 °F 32.2 °F 73% 30.07 in 10.0 mi WNW 5.8 mph - N/A   Overcast
9:36 PM 40.1 °F 36.1 °F 32.2 °F 73% 30.07 in 10.0 mi NW 5.8 mph - N/A   Overcast
9:55 PM 39.6 °F 34.0 °F 32.2 °F 75% 30.07 in 10.0 mi WNW 8.1 mph - N/A   Overcast
10:15 PM 39.7 °F 37.6 °F 32.5 °F 75% 30.09 in 10.0 mi WNW 3.5 mph - N/A   Overcast
10:35 PM 40.3 °F 37.1 °F 32.9 °F 75% 30.09 in 10.0 mi WNW 4.6 mph - N/A   Overcast
10:36 PM 40.3 °F 37.1 °F 32.9 °F 75% 30.09 in 10.0 mi WNW 4.6 mph - N/A   Overcast
10:55 PM 40.1 °F 33.6 °F 32.9 °F 75% 30.10 in 10.0 mi WNW 10.4 mph - N/A   Overcast
10:56 PM 40.1 °F 33.6 °F 32.9 °F 75% 30.10 in 10.0 mi WNW 10.4 mph - N/A   Overcast
11:15 PM 39.7 °F 32.7 °F 32.9 °F 77% 30.10 in 10.0 mi WNW 11.5 mph - N/A   Overcast
11:16 PM 39.7 °F 32.7 °F 32.9 °F 77% 30.10 in 10.0 mi WNW 11.5 mph - N/A   Overcast
11:35 PM 39.9 °F 32.9 °F 32.2 °F 74% 30.11 in 10.0 mi WNW 11.5 mph - N/A   Overcast
11:55 PM 39.6 °F 32.5 °F 32.0 °F 74% 30.11 in 10.0 mi WNW 11.5 mph 17.3 mph N/A   Overcast